Date String (YYYY-MM-DD hh:mm:ss) UTC,Instrument flags,Ambient pressure (hPa),Sample flow (lpm),Bypass flow (lpm),Sample temperature (°C),Ambient temperature (°C),ASC tube jacket temperature (°C),LED temperature (°C),Box temperature (°C),Sample RH (%),Span deviation,Mass concentration (μg/m³),Mass concentration (μg/m³),Mass concentration (μg/m³)
DateTimeUTC,F1_M11,P_M11,Q1_M11,Q2_M11,T1_M11,T2_M11,T3_M11,T4_M11,T5_M11,U1_M11,ZSPAN_M11,X0_M11,X2_M11,X1_M11
2023-05-29 09:00:00,,0829.7,5.00,0.00,29.0,27.2,00.0,37.5,30.5,22.4,0000.0,0009.35,0004.77,0003.78
2023-05-29 09:01:00,,0829.7,5.00,0.00,29.0,27.2,00.0,37.5,30.5,22.6,0000.0,0009.31,0004.75,0003.77
2023-05-29 09:02:00,,0829.7,5.00,0.00,29.0,27.2,00.0,37.5,30.5,22.7,0000.0,0009.18,0004.72,0003.76
2023-05-29 09:03:00,,0829.7,4.99,0.00,29.0,27.1,00.0,37.5,30.5,22.9,0000.0,0009.11,0004.69,0003.73
2023-05-29 09:04:00,,0829.7,5.00,0.00,29.0,27.1,00.0,37.5,30.5,22.9,0000.0,0010.52,0004.65,0003.71
2023-05-29 09:05:00,,0829.6,5.00,0.00,29.0,27.1,00.0,37.5,30.5,23.1,0000.0,0010.55,0004.64,0003.69
2023-05-29 09:06:00,,0829.7,5.00,0.00,29.0,27.1,00.0,37.4,30.5,23.0,0000.0,0010.57,0004.62,0003.66
2023-05-29 09:07:00,,0829.7,5.01,0.00,28.9,27.1,00.0,37.4,30.5,23.0,0000.0,0010.53,0004.59,0003.63
2023-05-29 09:08:00,,0829.7,5.00,0.00,28.9,27.0,00.0,37.4,30.5,23.1,0000.0,0010.50,0004.56,0003.61
2023-05-29 09:09:00,,0829.7,5.00,0.00,28.9,27.1,00.0,37.4,30.5,23.1,0000.0,0011.24,0004.54,0003.59
2023-05-29 09:10:00,,0829.7,4.99,0.00,28.9,27.0,00.0,37.4,30.4,23.1,0000.0,0011.24,0004.54,0003.58
2023-05-29 09:11:00,,0829.7,4.99,0.00,28.9,27.0,00.0,37.4,30.4,23.2,0000.0,0012.01,0004.55,0003.56
2023-05-29 09:12:00,,0829.7,5.00,0.00,28.9,27.0,00.0,37.4,30.4,23.5,0000.0,0012.41,0004.51,0003.55
2023-05-29 09:13:00,,0829.7,5.01,0.00,28.9,27.0,00.0,37.4,30.4,23.3,0000.0,0012.33,0004.49,0003.54
2023-05-29 09:14:00,,0829.7,5.00,0.00,28.9,27.1,00.0,37.4,30.4,23.3,0000.0,0012.12,0004.45,0003.53
2023-05-29 09:15:00,,0829.7,4.99,0.00,28.9,27.1,00.0,37.3,30.4,23.5,0000.0,0010.94,0004.48,0003.54
2023-05-29 09:16:00,,0829.7,5.00,0.00,28.9,27.1,00.0,37.3,30.5,23.3,0000.0,0010.74,0004.47,0003.53
2023-05-29 09:17:00,,0829.7,5.00,0.00,28.9,27.1,00.0,37.3,30.5,23.2,0000.0,0010.93,0004.42,0003.53
2023-05-29 09:18:00,,0829.6,5.00,0.00,28.9,27.2,00.0,37.3,30.5,23.2,0000.0,0011.45,0004.40,0003.51
2023-05-29 09:19:00,,0829.6,5.00,0.00,28.9,27.2,00.0,37.3,30.5,23.2,0000.0,0012.03,0004.37,0003.50
2023-05-29 09:20:00,,0829.7,5.00,0.00,28.9,27.3,00.0,37.3,30.5,23.1,0000.0,0011.33,0004.34,0003.49
2023-05-29 09:21:00,,0829.7,5.00,0.00,28.9,27.3,00.0,37.3,30.5,23.0,0000.0,0011.45,0004.37,0003.50
2023-05-29 09:22:00,,0829.7,5.00,0.00,28.9,27.3,00.0,37.3,30.5,22.8,0000.0,0011.83,0004.39,0003.49
2023-05-29 09:23:00,,0829.7,5.00,0.00,29.0,27.3,00.0,37.3,30.5,22.7,0000.0,0011.63,0004.42,0003.49
2023-05-29 09:24:00,,0829.7,5.00,0.00,29.0,27.4,00.0,37.3,30.6,22.6,0000.0,0011.69,0004.41,0003.48
2023-05-29 09:25:00,,0829.7,4.99,0.00,29.0,27.4,00.0,37.3,30.6,22.2,0000.0,0011.95,0004.35,0003.47
2023-05-29 09:26:00,,0829.7,5.00,0.00,29.0,27.4,00.0,37.3,30.6,21.8,0000.0,0012.07,0004.29,0003.45
2023-05-29 09:27:00,,0829.7,5.00,0.00,29.0,27.4,00.0,37.3,30.6,22.1,0000.0,0012.03,0004.27,0003.44
2023-05-29 09:28:00,,0829.7,5.00,0.00,29.0,27.4,00.0,37.3,30.6,22.2,0000.0,0012.19,0004.27,0003.44
2023-05-29 09:29:00,,0829.7,5.01,0.00,29.0,27.4,00.0,37.3,30.6,22.2,0000.0,0011.64,0004.24,0003.44
2023-05-29 09:30:00,,0829.7,5.00,0.00,29.0,27.4,00.0,37.4,30.6,22.2,0000.0,0011.60,0004.26,0003.44
2023-05-29 09:31:00,,0829.6,5.00,0.00,29.0,27.4,00.0,37.4,30.6,21.9,0000.0,0011.48,0004.26,0003.43
2023-05-29 09:32:00,,0829.6,5.00,0.00,29.0,27.4,00.0,37.4,30.6,21.8,0000.0,0011.34,0004.21,0003.43
2023-05-29 09:33:00,,0829.6,5.00,0.00,29.0,27.4,00.0,37.4,30.6,21.9,0000.0,0010.66,0004.18,0003.43
2023-05-29 09:34:00,,0829.7,5.00,0.00,29.0,27.4,00.0,37.4,30.6,21.7,0000.0,0010.04,0004.14,0003.43
2023-05-29 09:35:00,,0829.6,5.00,0.00,29.0,27.4,00.0,37.4,30.6,21.7,0000.0,0009.97,0004.13,0003.43
2023-05-29 09:36:00,,0829.7,5.00,0.00,29.0,27.4,00.0,37.4,30.6,21.6,0000.0,0009.93,0004.18,0003.43
2023-05-29 09:37:00,,0829.7,5.00,0.00,29.0,27.4,00.0,37.4,30.6,21.6,0000.0,0009.79,0004.22,0003.43
2023-05-29 09:38:00,,0829.7,5.00,0.00,29.0,27.4,00.0,37.4,30.6,21.5,0000.0,0010.34,0004.20,0003.44
2023-05-29 09:39:00,,0829.7,4.99,0.00,29.0,27.4,00.0,37.4,30.6,21.6,0000.0,0009.76,0004.19,0003.43
2023-05-29 09:40:00,,0829.7,5.01,0.00,29.0,27.5,00.0,37.4,30.6,20.9,0000.0,0009.76,0004.19,0003.43
2023-05-29 09:41:00,,0829.7,5.01,0.00,29.1,27.5,00.0,37.4,30.6,20.2,0000.0,0009.51,0004.12,0003.42
2023-05-29 09:42:00,,0829.7,5.01,0.00,29.1,27.5,00.0,37.4,30.6,20.3,0000.0,0009.76,0004.10,0003.40
2023-05-29 09:43:00,,0829.7,5.00,0.00,29.1,27.5,00.0,37.4,30.7,20.2,0000.0,0009.72,0004.07,0003.38
2023-05-29 09:44:00,,0829.7,4.99,0.00,29.1,27.5,00.0,37.4,30.7,20.5,0000.0,0009.76,0004.07,0003.38
2023-05-29 09:45:00,,0829.7,4.99,0.00,29.1,27.5,00.0,37.4,30.7,21.4,0000.0,0010.36,0004.12,0003.39
2023-05-29 09:46:00,,0829.6,5.01,0.00,29.1,27.5,00.0,37.4,30.7,21.4,0000.0,0010.52,0004.13,0003.38
2023-05-29 09:47:00,,0829.6,5.01,0.00,29.1,27.5,00.0,37.4,30.7,21.3,0000.0,0010.67,0004.12,0003.39
2023-05-29 09:48:00,,0829.6,5.00,0.00,29.1,27.5,00.0,37.4,30.7,21.0,0000.0,0012.09,0004.10,0003.39
2023-05-29 09:49:00,,0829.6,4.99,0.00,29.1,27.5,00.0,37.4,30.7,20.1,0000.0,0011.40,0004.08,0003.37
2023-05-29 09:50:00,,0829.6,4.99,0.00,29.1,27.5,00.0,37.4,30.7,19.7,0000.0,0011.58,0004.08,0003.35
2023-05-29 09:51:00,,0829.6,5.01,0.00,29.1,27.5,00.0,37.4,30.7,19.3,0000.0,0011.53,0004.06,0003.33
2023-05-29 09:52:00,,0829.6,5.01,0.00,29.1,27.5,00.0,37.4,30.7,19.0,0000.0,0011.62,0004.07,0003.32
2023-05-29 09:53:00,,0829.6,5.01,0.00,29.1,27.5,00.0,37.4,30.7,19.3,0000.0,0011.51,0004.12,0003.32
2023-05-29 09:54:00,,0829.6,4.99,0.00,29.1,27.5,00.0,37.4,30.7,18.6,0000.0,0011.58,0004.14,0003.31
2023-05-29 09:55:00,,0829.6,4.99,0.00,29.1,27.5,00.0,37.4,30.7,18.4,0000.0,0011.23,0004.10,0003.29
2023-05-29 09:56:00,,0829.6,5.00,0.00,29.1,27.5,00.0,37.4,30.7,18.1,0000.0,0010.46,0004.02,0003.25
2023-05-29 09:57:00,,0829.6,5.00,0.00,29.1,27.5,00.0,37.4,30.7,18.0,0000.0,0010.24,0003.96,0003.22
2023-05-29 09:58:00,,0829.6,5.01,0.00,29.1,27.5,00.0,37.4,30.7,18.2,0000.0,0010.11,0003.93,0003.20
2023-05-29 09:59:00,,0829.6,5.01,0.00,29.1,27.5,00.0,37.4,30.7,18.4,0000.0,0008.62,0003.92,0003.18
